| time (UTC) | temp F | wind direction | speed knots | gust knots | rain 1hr in | rain 24hr in | rain mn in | humidity % | barometer mb |
| 20260901151803 | 67 | 196 | 6.1 | 9.6 | 0.00 | 1.96 | 0.00 | 62 | 1015.8 |
| 20260901150903 | 68 | 183 | 5.2 | 7.8 | 0.00 | 1.96 | 0.00 | 61 | 1015.7 |
| 20260901150217 | 69 | 191 | 4.3 | 6.1 | 0.00 | 1.96 | 0.00 | 60 | 1015.9 |
| 20260901145403 | 68 | 161 | 4.3 | 6.1 | 0.00 | 1.96 | 0.00 | 62 | 1015.6 |
| 20260901144503 | 68 | 173 | 4.3 | 7.8 | 0.00 | 1.96 | 0.00 | 63 | 1015.8 |
| 20260901143603 | 68 | 181 | 6.1 | 9.6 | 0.00 | 1.96 | 0.00 | 63 | 1016.0 |
| 20260901142703 | 68 | 183 | 6.1 | 11.3 | 0.00 | 1.96 | 0.00 | 62 | 1016.1 |
| 20260901141803 | 68 | 187 | 6.1 | 10.4 | 0.00 | 1.96 | 0.00 | 63 | 1016.1 |
| 20260901141117 | 68 | 202 | 6.1 | 7.0 | 0.00 | 1.96 | 0.00 | 62 | 1016.2 |
| 20260901140003 | 67 | 193 | 4.3 | 7.0 | 0.00 | 1.96 | 0.00 | 63 | 1015.9 |
| 20260901135403 | 67 | 199 | 5.2 | 7.8 | 0.00 | 1.96 | 0.00 | 64 | 1016.2 |
| 20260901134503 | 66 | 217 | 4.3 | 7.8 | 0.00 | 1.96 | 0.00 | 62 | 1016.5 |
| 20260901133603 | 66 | 182 | 5.2 | 9.6 | 0.00 | 1.96 | 0.00 | 62 | 1016.0 |
| 20260901132703 | 67 | 221 | 6.1 | 9.6 | 0.00 | 1.96 | 0.00 | 61 | 1016.3 |
| 20260901131803 | 69 | 163 | 4.3 | 6.1 | 0.00 | 1.96 | 0.00 | 59 | 1015.9 |
| 20260901130903 | 70 | 189 | 6.1 | 9.6 | 0.00 | 1.96 | 0.00 | 60 | 1016.1 |
| 20260901130003 | 68 | 182 | 6.1 | 9.6 | 0.00 | 1.96 | 0.00 | 61 | 1015.9 |
| 20260901125403 | 68 | 191 | 5.2 | 8.7 | 0.00 | 1.96 | 0.00 | 61 | 1016.0 |
| 20260901124504 | 68 | 181 | 5.2 | 7.8 | 0.00 | 1.96 | 0.00 | 60 | 1016.2 |
| 20260901123603 | 68 | 197 | 5.2 | 8.7 | 0.00 | 1.96 | 0.00 | 61 | 1016.4 |
| 20260901122703 | 68 | 186 | 4.3 | 8.7 | 0.00 | 1.96 | 0.00 | 60 | 1016.3 |
| 20260901121803 | 69 | 189 | 4.3 | 7.0 | 0.00 | 1.96 | 0.00 | 55 | 1016.1 |
| 20260901120903 | 71 | 23 | 2.6 | 3.5 | 0.00 | 1.96 | 0.00 | 52 | 1016.2 |
| 20260901120003 | 69 | 306 | 3.5 | 4.3 | 0.98 | 1.96 | 0.00 | 52 | 1016.3 |
| 20260901115403 | 70 | 226 | 3.5 | 5.2 | 1.96 | 1.96 | 0.00 | 51 | 1016.2 |
| 20260901114503 | 72 | 249 | 4.3 | 6.1 | 1.96 | 1.96 | 0.00 | 48 | 1016.3 |
| 20260901113603 | 72 | 246 | 3.5 | 4.3 | 1.96 | 1.96 | 0.00 | 48 | 1016.2 |
| 20260901112703 | 72 | 218 | 4.3 | 6.1 | 1.96 | 1.96 | 0.00 | 50 | 1016.3 |
| 20260901112016 | 71 | 305 | 4.3 | 6.1 | 1.96 | 1.96 | 0.00 | 50 | 1016.3 |
| 20260901110903 | 71 | 329 | 4.3 | 6.1 | 1.96 | 1.96 | 0.00 | 51 | 1016.3 |
| 20260901110217 | 70 | 331 | 2.6 | 6.1 | 1.96 | 1.96 | 0.00 | 52 | 1016.3 |
| 20260901105403 | 70 | 327 | 5.2 | 7.8 | 0.00 | 0.00 | 0.00 | 53 | 1016.4 |
| 20260901104503 | 70 | 254 | 3.5 | 5.2 | 0.00 | 0.00 | 0.00 | 56 | 1016.6 |
| 20260901103603 | 69 | 103 | 4.3 | 6.1 | 0.00 | 0.00 | 0.00 | 56 | 1016.4 |
| 20260901102703 | 69 | 215 | 3.5 | 6.1 | 0.00 | 0.00 | 0.00 | 57 | 1016.7 |
| 20260901101803 | 70 | 223 | 3.5 | 7.8 | 0.00 | 0.00 | 0.00 | 56 | 1016.6 |
| 20260901100903 | 71 | 145 | 3.5 | 8.7 | 0.00 | 0.00 | 0.00 | 60 | 1016.6 |
| 20260901100003 | 69 | 285 | 2.6 | 3.5 | 0.00 | 0.00 | 0.00 | 61 | 1016.7 |
| 20260901095403 | 69 | 304 | 3.5 | 6.1 | 0.00 | 0.00 | 0.00 | 62 | 1016.7 |
| 20260901094503 | 67 | 204 | 4.3 | 7.0 | 0.00 | 0.00 | 0.00 | 63 | 1016.8 |
| 20260901093603 | 67 | 173 | 3.5 | 6.1 | 0.00 | 0.00 | 0.00 | 66 | 1017.1 |
| 20260901092703 | 66 | 158 | 3.5 | 3.5 | 0.00 | 0.00 | 0.00 | 68 | 1016.7 |
| 20260901091803 | 64 | 163 | 4.3 | 7.0 | 0.00 | 0.00 | 0.00 | 71 | 1016.9 |
| 20260901090903 | 63 | 174 | 4.3 | 5.2 | 0.00 | 0.00 | 0.00 | 75 | 1016.8 |
| 20260901090003 | 62 | 145 | 2.6 | 4.3 | 0.00 | 0.00 | 0.00 | 79 | 1017.0 |
| 20260901085403 | 62 | 96 | 2.6 | 3.5 | 0.00 | 0.00 | 0.00 | 80 | 1017.0 |
| 20260901084503 | 61 | 95 | 1.7 | 3.5 | 0.00 | 0.00 | 0.00 | 81 | 1016.8 |
| 20260901083603 | 60 | 96 | 2.6 | 2.6 | 0.00 | 0.00 | 0.00 | 81 | 1016.9 |
| 20260901082703 | 60 | 105 | 1.7 | 2.6 | 0.00 | 0.00 | 0.00 | 81 | 1017.0 |
| 20260901082017 | 60 | 128 | 1.7 | 3.5 | 0.00 | 0.00 | 0.00 | 82 | 1016.8 |
| 20260901080903 | 59 | 109 | 0.9 | 1.7 | 0.00 | 0.00 | 0.00 | 84 | 1016.9 |
| 20260901080003 | 58 | 188 | 2.6 | 3.5 | 0.00 | 0.00 | 0.00 | 83 | 1016.4 |
| 20260901075403 | 58 | 178 | 2.6 | 4.3 | 0.00 | 0.00 | 0.00 | 84 | 1016.8 |
| 20260901074503 | 57 | 175 | 0.9 | 1.7 | 0.00 | 0.00 | 0.00 | 85 | 1016.4 |
| 20260901073603 | 57 | 118 | 1.7 | 2.6 | 0.00 | 0.00 | 0.00 | 86 | 1016.6 |
| 20260901072703 | 56 | 94 | 1.7 | 2.6 | 0.00 | 0.00 | 0.00 | 87 | 1016.7 |
| 20260901071803 | 56 | 125 | 1.7 | 2.6 | 0.00 | 0.00 | 0.00 | 88 | 1016.5 |
| 20260901070903 | 56 | 128 | 1.7 | 2.6 | 0.00 | 0.00 | 0.00 | 89 | 1016.4 |
| 20260901070003 | 55 | 106 | 1.7 | 2.6 | 0.00 | 0.00 | 0.00 | 90 | 1016.4 |
| 20260901065403 | 55 | 89 | 1.7 | 2.6 | 0.00 | 0.00 | 0.00 | 90 | 1016.3 |
| 20260901064503 | 54 | 143 | 1.7 | 2.6 | 0.00 | 0.00 | 0.00 | 93 | 1016.4 |
| 20260901063818 | 54 | 166 | 2.6 | 3.5 | 0.00 | 0.00 | 0.00 | 94 | 1016.5 |
| 20260901062703 | 54 | 168 | 2.6 | 3.5 | 0.00 | 0.00 | 0.00 | 95 | 1016.3 |
| 20260901062017 | 54 | 169 | 1.7 | 3.5 | 0.00 | 0.00 | 0.00 | 95 | 1016.1 |
| 20260901061118 | 53 | 160 | 0.0 | 0.9 | 0.00 | 0.00 | 0.00 | 95 | 1016.4 |
| 20260901060004 | 52 | 360 | 0.9 | 2.6 | 0.00 | 0.00 | 0.00 | 94 | 1015.9 |
| 20260831203603 | 58 | 349 | 1.7 | 2.6 | 0.00 | 0.01 | 0.01 | 72 | 1015.1 |
| 20260831202703 | 59 | 45 | 1.7 | 1.7 | 0.00 | 0.01 | 0.01 | 71 | 1014.9 |
| 20260831201803 | 59 | 45 | 1.7 | 1.7 | 0.00 | 0.01 | 0.01 | 71 | 1014.9 |
| 20260831200903 | 59 | 342 | 1.7 | 1.7 | 0.00 | 0.01 | 0.01 | 71 | 1014.9 |
| 20260831200003 | 60 | 315 | 1.7 | 1.7 | 0.00 | 0.01 | 0.01 | 70 | 1014.5 |
| 20260831195618 | 60 | 315 | 1.7 | 1.7 | 0.00 | 0.01 | 0.01 | 70 | 1014.5 |
| 20260831194503 | 60 | 300 | 3.5 | 4.3 | 0.00 | 0.01 | 0.01 | 70 | 1014.8 |
| 20260831193603 | 60 | 317 | 3.5 | 4.3 | 0.00 | 0.01 | 0.01 | 70 | 1014.4 |
| 20260831192703 | 60 | 313 | 4.3 | 7.0 | 0.00 | 0.01 | 0.01 | 70 | 1014.6 |
| 20260831191803 | 61 | 268 | 2.6 | 3.5 | 0.00 | 0.01 | 0.01 | 70 | 1014.6 |
| 20260831190903 | 61 | 353 | 1.7 | 2.6 | 0.00 | 0.01 | 0.01 | 69 | 1014.2 |
| 20260831190003 | 61 | 332 | 3.5 | 3.5 | 0.00 | 0.12 | 0.01 | 68 | 1014.0 |
| 20260831185403 | 62 | 317 | 4.3 | 5.2 | 0.00 | 0.14 | 0.01 | 67 | 1014.2 |
| 20260831184503 | 62 | 300 | 5.2 | 6.1 | 0.00 | 0.14 | 0.01 | 65 | 1014.0 |
| 20260831183603 | 62 | 306 | 4.3 | 6.1 | 0.00 | 0.14 | 0.01 | 65 | 1014.1 |
| 20260831182703 | 63 | 330 | 2.6 | 3.5 | 0.00 | 0.14 | 0.01 | 64 | 1013.8 |
| 20260831181803 | 64 | 289 | 3.5 | 6.1 | 0.00 | 0.14 | 0.01 | 59 | 1013.8 |
| 20260831180903 | 64 | 329 | 5.2 | 7.0 | 0.00 | 0.14 | 0.01 | 58 | 1014.0 |
| 20260831180003 | 65 | 328 | 6.1 | 7.8 | 0.00 | 0.14 | 0.01 | 55 | 1013.7 |
| 20260831175617 | 65 | 321 | 5.2 | 7.0 | 0.00 | 0.14 | 0.01 | 54 | 1013.5 |
| 20260831174503 | 66 | 315 | 4.3 | 7.0 | 0.00 | 0.14 | 0.01 | 54 | 1013.6 |
| 20260831173603 | 65 | 329 | 5.2 | 7.8 | 0.00 | 0.14 | 0.01 | 53 | 1013.7 |
| 20260831172703 | 65 | 291 | 6.1 | 9.6 | 0.00 | 0.14 | 0.01 | 53 | 1013.6 |
| 20260831171803 | 65 | 301 | 6.1 | 9.6 | 0.00 | 0.14 | 0.01 | 52 | 1013.5 |
| 20260831171118 | 65 | 307 | 7.8 | 9.6 | 0.00 | 0.14 | 0.01 | 52 | 1013.1 |
| 20260831170218 | 66 | 321 | 7.8 | 10.4 | 0.00 | 0.14 | 0.01 | 50 | 1013.3 |
| 20260831165403 | 67 | 301 | 8.7 | 12.2 | 0.00 | 0.14 | 0.01 | 50 | 1013.5 |
| 20260831164503 | 67 | 296 | 8.7 | 13.0 | 0.00 | 0.14 | 0.01 | 51 | 1013.3 |
| 20260831163603 | 67 | 304 | 7.8 | 10.4 | 0.00 | 0.14 | 0.01 | 51 | 1013.3 |
| 20260831162703 | 68 | 327 | 7.8 | 11.3 | 0.00 | 0.14 | 0.01 | 53 | 1013.1 |
| 20260831161803 | 67 | 305 | 8.7 | 9.6 | 0.00 | 0.14 | 0.01 | 54 | 1013.1 |
| 20260831160903 | 67 | 328 | 7.8 | 9.6 | 0.00 | 0.14 | 0.01 | 52 | 1012.9 |
| 20260831160003 | 67 | 319 | 8.7 | 10.4 | 0.00 | 0.14 | 0.01 | 52 | 1012.9 |
| 20260831155403 | 67 | 314 | 7.8 | 9.6 | 0.00 | 0.14 | 0.01 | 51 | 1012.9 |
| 20260831154503 | 68 | 320 | 8.7 | 11.3 | 0.00 | 0.14 | 0.01 | 51 | 1012.6 |
| 20260831153603 | 68 | 279 | 9.6 | 13.0 | 0.00 | 0.14 | 0.01 | 50 | 1012.6 |